TimePST,TemperatureF,Dew PointF,Humidity,Sea Level PressureIn,VisibilityMPH,Wind Direction,Wind SpeedMPH,Gust SpeedMPH,PrecipitationIn,Events,Conditions,WindDirDegrees,DateUTC
12:53 AM,42.1,34.0,73,29.99,10.0,West,12.7,-,N/A,,Partly Cloudy,270,2013-03-09 08:53:00
1:53 AM,42.1,34.0,73,29.99,10.0,West,12.7,-,N/A,,Overcast,270,2013-03-09 09:53:00
2:53 AM,41.0,34.0,76,29.99,10.0,WSW,8.1,-,N/A,,Clear,240,2013-03-09 10:53:00
3:53 AM,39.2,33.8,81,30.00,10.0,WSW,9.2,-,N/A,,Clear,250,2013-03-09 11:53:00
4:53 AM,39.0,32.0,76,30.03,10.0,West,12.7,-,N/A,,Clear,280,2013-03-09 12:53:00
5:53 AM,39.0,30.9,73,30.05,10.0,West,12.7,-,N/A,,Clear,280,2013-03-09 13:53:00
6:53 AM,39.9,33.1,77,30.06,10.0,West,10.4,-,N/A,,Clear,270,2013-03-09 14:53:00
7:53 AM,44.1,33.1,65,30.08,10.0,West,10.4,-,N/A,,Clear,270,2013-03-09 15:53:00
8:53 AM,46.9,33.1,59,30.10,10.0,WNW,19.6,-,N/A,,Clear,290,2013-03-09 16:53:00
9:53 AM,48.9,33.1,54,30.11,10.0,WNW,18.4,-,N/A,,Clear,300,2013-03-09 17:53:00
10:53 AM,53.1,33.1,47,30.11,10.0,NW,13.8,23.0,N/A,,Clear,310,2013-03-09 18:53:00
11:53 AM,55.0,32.0,42,30.10,10.0,NNW,12.7,20.7,N/A,,Clear,330,2013-03-09 19:53:00
12:53 PM,57.0,30.9,37,30.09,10.0,WNW,12.7,23.0,N/A,,Clear,300,2013-03-09 20:53:00
1:53 PM,57.0,32.0,39,30.09,10.0,WNW,23.0,-,N/A,,Clear,290,2013-03-09 21:53:00
2:53 PM,55.9,30.9,39,30.11,10.0,West,20.7,27.6,N/A,,Clear,280,2013-03-09 22:53:00
3:53 PM,54.0,30.9,41,30.12,10.0,WNW,23.0,-,N/A,,Clear,300,2013-03-09 23:53:00
4:53 PM,51.1,32.0,48,30.15,10.0,WNW,20.7,-,N/A,,Clear,300,2013-03-10 00:53:00
5:53 PM,46.9,32.0,56,30.18,10.0,WNW,21.9,-,N/A,,Clear,290,2013-03-10 01:53:00
6:53 PM,46.0,30.9,56,30.20,10.0,WNW,13.8,-,N/A,,Clear,290,2013-03-10 02:53:00
7:53 PM,45.0,30.0,56,30.21,10.0,SSE,3.5,-,N/A,,Clear,160,2013-03-10 03:53:00
8:53 PM,43.0,30.9,62,30.22,10.0,SSW,4.6,-,N/A,,Clear,210,2013-03-10 04:53:00
9:53 PM,39.9,32.0,73,30.24,10.0,SSW,5.8,-,N/A,,Clear,200,2013-03-10 05:53:00
10:53 PM,39.0,30.9,73,30.24,10.0,SSW,8.1,-,N/A,,Clear,200,2013-03-10 06:53:00
11:53 PM,37.0,30.0,76,30.25,10.0,SSW,5.8,-,N/A,,Clear,200,2013-03-10 07:53:00